CAPE
1976 2081 2106 1861 2039 2002 2080 2410 2121 2698 2576 2265 2304 2512 1928 1952 2180 1924 1929 2020 2058 1838 1756 1944 2038 1722 1919 1774 1467 1042 1378 1340 1600 1884 1888 2070 1876 2728 2326 2342 2034 2221 1955 2013 2110 2382 2364 2313 2350 2325 2261 2364 2074 2092 1960 1934 1678 1710 1855 1518 1280 1146 1254 1473 1476 1516 1471 1499 1452 1487 1520 1480 1412 1334 1363 1393 1250 1263 1290 1384 1386 1317 1354 1312 1367
1928 2604 2035 2526 2678 2308 2888 2611 3061 2360 2579 2574 2703 2461 2235 2048 2164 2163 2213 2220 2176 2059 2155 2142 2110 1550 1285 962 830 766 614 650 815 1090 927 836 1207 3121 2440 1994 2066 1999 1992 2012 2146 2192 2352 2280 2134 2059 2282 2219 2558 2284 2194 2245 1772 1727 1763 1613 1501 1358 1138 1466 1544 1626 1494 1532 1468 1501 1585 1546 1416 1423 1426 1501 1481 1388 1267 1325 1444 1475 1462 1426 1498
2020 2594 2350 2632 2793 2333 2464 2314 2569 1900 2679 2014 2804 2409 1977 2209 2622 2454 2399 2735 2406 2404 2279 1730 801 580 372 688 627 438 339 326 391 367 424 629 594 1371 2375 2334 1958 2241 2005 2184 2206 2362 2215 2289 2126 2060 2102 2042 2198 2158 2041 2044 2118 1733 1620 1595 1460 1360 1473 1420 1588 1679 1598 1682 1536 1597 1702 1692 1621 1514 1594 1615 1664 1659 1564 1368 1299 1430 1532 1495 1508
3250 3095 2476 2742 3025 3004 2076 2305 2206 1986 2356 2149 2220 2032 2311 2420 2676 3231 3114 2817 2594 1692 1060 818 627 337 448 437 352 313 274 316 330 364 264 296 374 411 2033 2560 2340 1872 2329 1998 2343 2390 2390 2402 2228 2199 1968 1844 1909 2204 2224 2116 2233 1816 1724 1666 1592 1444 1322 1286 1296 1639 1666 1642 1864 1745 1823 1835 1877 1758 1680 1618 1683 1846 1862 1780 1638 1566 1595 1694 1682
3818 3060 2768 2460 2572 2689 2719 2347 2396 2412 3171 2257 2518 2772 2690 2158 1754 1718 2277 2168 1152 764 705 356 34 19 92 69 78 156 275 376 319 398 405 317 365 444 432 950 2534 2431 1820 2397 2150 2358 2430 2491 2370 2102 1969 1845 1752 1995 2162 2317 2251 2115 1801 1380 1504 1160 1350 1085 1387 1592 1616 1546 1712 1859 1936 2016 2031 1964 1896 1812 1694 1767 1854 1919 1884 1820 1780 1811 1880
3765 4000 3050 2439 2436 2774 2884 2572 2726 2705 2365 2715 2259 2250 2142 2819 2319 1783 1050 769 579 503 80 10 32 40 24 131 232 440 544 490 527 517 511 663 521 454 530 434 794 2070 2201 2045 2308 2438 2488 2515 2484 2206 1916 1854 1888 1736 1784 1923 1784 1970 1714 1609 1220 1082 815 927 1043 1209 1399 1609 1704 1666 1787 1938 1988 2026 2015 1951 1898 1846 1816 1834 1957 2083 2058 2012 2022
4203 4458 3456 2978 2534 2226 2998 2477 2185 2676 2641 2308 2375 2051 1982 2011 1836 919 760 656 123 0 29 148 240 336 562 609 592 640 710 649 787 704 745 928 849 744 1000 1113 441 580 1811 2020 2298 2468 2569 2552 2559 2390 2210 1910 1882 1832 1754 1758 1874 1788 1704 1688 1459 1234 1034 778 768 1059 1480 1563 1658 1590 1601 1725 1884 2029 1985 1979 2020 2079 2131 2054 2020 2089 2112 2125 2106
4598 4023 3829 3022 2768 1936 2692 2946 3320 3217 2428 2359 2678 2623 2269 2064 1069 830 470 63 69 119 197 265 405 464 678 760 732 781 624 608 693 784 513 690 933 861 791 1156 1537 980 815 776 1757 2122 2580 2725 2736 2386 2248 1857 1925 1766 1536 1501 1426 1317 1439 1290 1291 1309 1094 978 786 960 1424 1896 1807 1806 1816 1789 1827 1854 1965 1990 1942 1995 2118 2155 2182 2193 2114 2148 2150
4852 3938 4008 3511 2991 2776 2088 2879 3354 2746 3077 3153 2665 1781 1613 1080 822 490 184 876 647 340 268 456 434 587 644 642 706 845 926 503 670 667 738 858 846 775 796 1158 1737 958 980 118 424 1832 2592 2511 2728 2477 2194 2052 1923 1974 1949 1395 1600 1492 1366 1222 1368 1262 1200 1089 1234 1572 1899 2173 1833 1851 1893 1886 1929 1921 1733 1630 1660 1783 1907 2160 2299 2276 2240 2295 2216
4478 4926 4060 3526 3228 3326 2110 3176 2936 3082 2972 2702 2460 1100 705 473 339 549 662 931 792 537 639 482 430 450 394 462 709 598 562 537 534 675 783 700 836 908 1035 1737 1184 926 454 445 456 866 2085 2361 2516 2436 2299 2081 1951 1916 1822 1430 1457 1339 1192 1153 1199 1230 1294 1150 1312 1369 1486 1881 1887 1762 1693 1809 1805 1832 1885 1965 2058 1889 1661 1694 1949 2132 2305 2264 2220
4839 4822 3820 3483 3349 2993 2408 2032 2601 3056 3301 2166 1065 897 771 900 870 926 1058 888 720 773 619 440 502 422 142 316 384 629 613 511 482 415 437 480 656 928 509 905 1580 1312 1311 574 420 555 498 2422 2357 1866 2341 2178 2206 2134 1927 1571 1335 1188 1130 1053 1052 1128 1453 1632 1630 1606 1386 1292 1344 1360 1597 1687 1656 1729 1845 1991 2127 2176 2198 2155 2040 1977 2100 2265 2345
4619 4630 3918 3746 3149 2713 2031 3614 2850 1956 1474 996 570 496 716 940 1064 939 962 914 496 533 443 222 16 1 50 48 387 488 526 492 479 382 245 252 308 528 476 671 1042 1200 1572 1872 1323 812 938 1117 1408 1744 1338 1334 2197 1957 1946 1695 1550 1382 1392 1169 1210 1348 1618 1650 1713 1564 1391 1435 1473 1464 1510 1633 1648 1692 1844 2014 2023 2082 2091 2055 2114 2101 2078 2127 2171
4746 4526 4177 4106 3534 2602 2380 2030 1447 1036 1086 754 768 907 1074 1006 1120 987 882 646 292 153 198 0 34 298 185 26 342 455 550 166 334 226 82 42 127 188 235 233 456 674 1024 735 1449 1397 1558 1650 1119 1146 1565 2400 1902 1717 1540 1315 1564 1728 1579 1393 1442 1610 1750 1820 1785 1700 1605 1324 1561 1636 1640 1669 1764 1860 1982 1996 2060 2141 2027 1941 1970 2156 2155 2102 2162
4137 4259 4068 4341 3719 2665 1852 1202 702 732 1026 747 800 510 520 532 749 858 768 266 94 23 14 0 328 17 0 2 41 414 252 277 313 71 19 10 56 116 149 43 128 322 364 362 595 602 696 1034 1555 1842 1765 1236 1948 1546 1416 1498 1586 1784 1763 1742 1721 1692 1676 1802 1840 1829 1608 1795 1784 1648 1620 1642 1719 1812 1887 1967 2060 2130 1982 1844 1837 1890 2033 1976 2005
4150 3926 4203 3816 2549 1773 1347 1182 852 902 1058 958 489 233 11 0 484 568 340 134 57 81 100 36 232 24 71 167 254 2 647 514 232 104 18 10 18 4 4 39 0 108 235 160 223 333 283 432 1091 1268 1561 1444 1453 1730 1456 1349 1835 1653 1423 1407 1378 1416 1536 1520 1603 1681 1649 1671 1732 1778 1823 1808 1769 1738 1761 1821 1972 2020 1906 1791 1683 1778 1883 1898 1924
4210 3686 2798 2566 2040 1512 1338 1404 1176 1180 1064 714 314 10 262 642 566 180 317 0 46 44 258 209 98 94 269 1 0 1 677 372 619 181 8 0 20 0 0 0 0 8 1 0 25 155 200 228 682 615 820 981 856 1198 1347 1567 1539 1280 1062 1051 922 1060 1144 1318 1442 1301 1387 1434 1580 1584 1696 1806 1859 1862 1822 1822 1833 1859 1819 1866 1847 1760 1740 1816 1994
3280 3192 2190 1970 1645 1503 1274 1412 1273 1190 914 716 145 6 376 416 362 268 91 3 53 6 48 40 299 285 288 302 294 102 234 12 0 423 75 55 3 1 0 0 0 0 0 0 1 0 12 7 54 127 114 251 312 470 673 921 855 972 700 294 216 113 242 657 900 996 1048 1095 1167 1274 1466 1470 1536 1510 1586 1867 1857 1728 1754 1813 1839 1772 1747 1860 1944
2361 2234 2072 1764 1799 1649 1440 1243 1246 1278 1047 312 64 146 368 190 203 69 84 126 28 16 7 262 204 421 265 258 26 323 150 185 108 281 184 51 5 26 0 0 0 0 0 0 0 0 0 0 0 0 4 0 5 20 46 254 714 393 620 117 6 0 0 12 194 379 586 719 824 903 986 1064 1124 1403 1556 1790 1896 1838 1676 1800 1806 1756 1700 1807 1884
2104 2057 1939 1850 1888 1591 1450 1382 1159 990 586 372 176 88 90 159 148 50 41 163 34 139 0 24 42 246 246 125 54 226 64 207 350 90 342 100 102 44 3 0 0 0 0 0 0 0 0 0 0 0 0 0 0 15 2 0 0 0 6 0 0 0 0 0 7 38 55 43 192 272 578 720 784 865 965 1095 1376 1583 1588 1694 1590 1308 1265 1405 1652
1768 1829 1926 1824 1606 1582 1574 1399 1170 556 524 309 93 82 108 120 88 91 76 38 203 142 279 24 5 28 119 198 194 225 238 46 171 279 63 61 210 21 18 4 0 0 0 0 0 0 0 0 0 0 0 0 0 0 0 18 176 28 0 0 0 0 0 0 0 0 0 0 2 9 11 20 56 95 570 778 844 960 1315 1518 1498 1455 1476 1479 1620
2094 1686 1850 1675 1664 1691 1598 1459 914 611 313 75 34 114 191 254 241 161 234 377 466 340 252 350 187 27 267 244 202 228 93 71 93 165 145 72 60 100 20 3 0 11 0 0 0 0 0 0 0 0 0 0 0 0 0 0 2 0 0 0 0 0 0 0 0 0 0 0 0 0 0 0 0 6 16 44 215 574 844 924 1085 1423 1406 1319 1497
2332 2018 1910 1782 1721 1695 1501 540 556 249 53 42 168 271 282 245 472 582 554 472 447 356 378 300 224 191 176 202 181 172 168 114 100 80 100 20 10 5 3 7 35 32 8 8 0 0 0 0 0 0 0 0 0 0 0 0 0 0 0 0 0 0 0 0 0 0 0 0 0 0 0 0 0 0 0 0 1 22 98 336 598 813 1020 1310 1435
1780 2036 1967 1905 1865 1652 642 414 294 87 66 293 350 138 202 166 346 465 411 290 360 383 238 280 265 260 206 156 102 58 52 18 41 12 26 17 18 6 9 12 13 10 38 24 39 12 0 0 0 0 0 0 0 0 0 0 0 0 0 0 0 0 0 0 0 0 0 0 0 0 0 0 0 0 0 0 0 0 0 7 44 142 288 578 819
2006 1621 1809 1750 1813 1613 515 264 308 86 208 296 231 4 59 186 385 472 440 336 364 143 281 196 192 199 23 10 56 18 38 11 23 35 45 28 51 23 18 30 28 26 13 66 19 19 12 0 1 1 2 0 0 0 0 0 0 0 0 1 0 0 0 0 0 0 0 0 0 0 0 0 0 0 0 0 0 0 0 0 0 2 19 47 111
2150 1704 1730 1774 1599 1151 613 430 404 169 546 209 222 218 120 84 188 282 251 280 316 156 168 162 32 64 12 6 13 21 15 21 14 24 23 21 34 42 33 6 24 24 20 6 9 12 16 10 3 9 12 3 0 0 0 0 0 103 12 5 0 92 0 0 0 0 0 0 0 0 0 0 0 0 0 0 0 0 0 0 0 0 0 0 0
1895 1670 1386 1228 792 1011 631 560 385 349 580 604 470 420 390 246 310 248 148 157 144 217 112 34 29 27 38 5 0 16 17 20 15 31 10 22 29 16 40 51 39 19 2 5 8 6 8 82 11 33 8 2 0 0 0 0 0 586 50 0 0 3 0 0 18 0 0 0 0 0 0 0 0 0 0 0 0 0 0 0 0 0 0 0 0
1860 1500 1419 1153 753 481 633 698 478 670 529 643 538 471 580 359 422 411 165 125 180 145 124 48 11 12 0 0 8 1 0 4 3 9 15 11 8 27 74 40 28 9 18 36 25 6 2 20 3 12 24 188 6 12 2 0 0 200 0 5 0 0 0 4 3 12 2 3 0 0 0 0 0 0 0 0 0 0 0 0 0 0 0 0 0
2004 1823 1448 1132 1002 790 787 683 712 620 648 673 588 531 500 454 496 360 192 124 112 170 154 96 41 42 82 86 162 44 48 26 62 35 30 29 44 98 99 86 47 26 23 31 18 27 26 55 78 119 30 29 45 55 25 2 0 8 140 0 0 46 94 14 16 0 0 0 1 0 0 0 0 0 0 0 0 0 0 0 0 0 0 0 0
2174 1824 1584 1225 1008 946 871 638 759 706 686 788 752 454 518 430 458 480 283 108 586 412 284 168 300 98 108 146 190 226 194 168 158 129 151 252 268 297 196 146 94 71 29 53 85 17 33 20 36 123 49 35 74 32 52 69 64 48 35 23 34 65 8 2 1 1 0 0 0 0 0 2 0 0 0 0 0 0 0 0 0 0 0 0 0
1990 1978 1853 1366 1226 1054 878 687 587 624 710 796 740 590 726 783 575 732 486 499 363 463 719 525 327 286 207 126 125 154 166 167 151 123 194 340 311 319 334 291 307 236 183 122 126 68 58 27 12 38 185 78 24 49 115 169 135 125 86 89 109 195 119 28 13 12 1 0 0 0 0 0 0 0 0 0 0 0 0 0 0 0 0 0 0
2136 2012 1807 1415 1204 1035 818 698 639 640 752 822 698 620 789 944 767 723 530 564 648 559 978 841 412 247 252 258 198 184 163 106 196 129 143 222 327 412 500 499 438 379 363 233 228 258 33 34 23 6 15 47 29 26 38 72 81 45 46 57 99 86 116 414 162 40 4 0 0 0 0 0 0 0 0 0 0 0 0 0 0 0 0 0 0
2207 2008 1550 1299 1210 945 695 605 583 551 735 754 734 725 849 844 768 640 796 824 665 801 741 509 248 199 216 254 234 274 220 223 286 271 308 333 378 404 428 503 560 556 716 578 498 562 555 127 42 44 38 47 28 48 53 43 50 330 129 170 259 378 297 340 324 210 214 3 0 0 0 0 0 0 0 0 0 0 0 0 0 0 0 0 0
2167 1835 1537 1336 1205 1007 612 697 611 684 812 606 767 836 882 957 1010 955 833 967 849 916 854 549 213 204 306 220 223 288 346 298 323 356 345 308 309 288 300 418 518 609 872 1174 1061 692 602 519 329 175 98 92 44 63 98 130 160 95 65 140 193 292 367 376 332 213 135 40 0 0 0 0 0 0 0 0 0 0 0 0 0 0 0 0 0
2203 1881 1596 1244 1165 1000 712 650 780 794 746 664 806 992 940 986 1044 939 836 1014 1004 961 876 426 366 357 297 438 370 448 453 393 367 412 418 320 203 181 224 214 246 347 628 544 426 487 545 489 338 374 208 127 103 151 92 96 134 165 131 100 114 176 202 157 152 160 124 50 4 0 0 0 0 0 0 0 0 0 0 0 0 0 0 0 0
2288 2016 1743 1252 1263 1164 829 799 798 940 967 846 836 918 910 1082 960 732 643 842 820 583 473 433 446 441 422 548 370 470 432 399 450 451 348 314 288 271 222 219 284 280 294 282 253 383 499 444 499 434 277 171 101 138 209 178 238 178 203 235 267 334 332 240 208 158 88 48 1 0 0 0 0 0 0 0 0 0 0 0 0 0 0 0 0
2412 2215 1848 1313 1300 1179 652 806 920 858 462 662 794 860 946 921 865 931 729 765 550 372 401 472 468 443 406 463 450 406 363 322 360 520 416 315 360 384 384 514 576 596 690 769 969 547 619 630 582 432 433 379 306 232 258 284 256 188 149 317 274 432 473 366 332 332 127 44 4 0 0 0 0 0 0 0 0 0 0 0 0 0 0 0 0
2636 2242 1836 1363 1400 1087 545 1110 1238 746 487 862 988 715 675 775 785 760 710 718 605 467 441 533 511 512 475 483 409 390 391 383 386 354 289 384 372 337 325 387 455 456 424 433 525 592 624 723 562 599 474 440 350 336 416 566 538 458 466 406 357 413 379 161 68 100 41 1 0 0 0 0 0 0 0 0 0 0 0 0 0 0 0 0 0
2629 2159 1762 1530 1411 950 852 1375 1154 620 512 943 1075 790 550 498 783 716 724 622 436 467 490 549 532 562 566 567 454 393 324 303 288 266 320 264 272 258 312 422 414 374 396 278 397 711 884 1118 1258 934 1133 1034 702 760 882 773 320 858 664 403 300 306 393 131 32 70 153 144 154 208 308 206 104 0 0 0 0 0 0 0 0 0 0 0 0
2619 2228 1810 1712 1274 1160 1123 1212 881 858 1204 1317 1023 888 504 563 768 763 521 502 464 462 454 422 463 460 441 500 540 485 449 363 287 275 346 415 412 458 501 484 408 414 451 566 667 1020 1002 1266 1095 916 806 858 1142 834 454 386 1194 856 509 278 244 341 268 156 222 190 203 274 240 102 98 75 69 135 13 0 0 0 0 0 0 0 0 0 0
2670 2364 2070 1732 1428 1506 1548 1106 859 1232 1374 1196 966 908 656 640 692 670 615 580 458 534 444 387 429 325 231 360 395 479 457 456 422 445 502 495 487 557 697 846 622 486 542 677 735 683 840 294 212 332 482 460 352 447 780 826 828 930 664 213 104 145 243 446 507 553 392 360 408 348 281 266 264 177 31 4 8 2 0 2 3 0 0 0 0
2612 2346 1879 1444 1424 1346 1177 875 703 1166 1265 818 629 730 414 552 586 576 844 710 527 441 471 508 374 131 462 388 370 447 498 652 649 576 439 502 744 625 631 500 609 591 561 679 736 581 468 238 226 265 154 172 322 481 449 466 303 719 548 240 384 408 328 327 662 636 372 353 393 372 418 355 316 378 467 567 550 561 618 274 92 112 36 0 0
2694 2309 1928 1586 1476 1314 719 607 789 1027 907 622 627 491 615 802 904 723 579 732 556 515 676 605 516 446 536 557 514 632 832 1079 1023 738 535 552 579 702 1040 888 939 872 843 744 615 383 168 115 126 114 111 76 72 117 138 359 490 624 468 652 444 298 432 436 330 373 554 350 374 507 534 489 401 463 537 524 471 550 390 252 196 181 230 59 0
2828 2632 2268 1786 1100 962 964 902 878 672 207 302 571 442 575 530 576 469 634 972 659 521 692 806 755 592 446 646 702 752 1273 1087 1186 904 804 718 714 614 454 287 319 783 585 511 476 203 75 65 92 143 161 114 91 158 143 56 54 175 352 161 132 276 292 254 296 429 546 610 546 480 485 516 512 475 529 455 300 344 313 298 214 192 92 29 0
2656 2346 1964 1846 1716 1605 1522 1322 984 642 480 502 380 293 243 156 565 714 330 660 496 683 661 623 715 637 474 712 795 829 718 1463 1715 2066 1130 773 790 859 767 486 172 58 32 451 402 295 184 171 172 195 218 190 223 256 243 52 248 358 402 364 367 274 234 323 353 376 499 427 404 382 349 394 297 278 308 350 310 333 238 162 75 78 50 8 0
2669 2030 2083 2097 2028 1883 1726 1553 1299 1033 626 523 451 475 71 127 168 112 195 176 609 588 392 519 755 813 998 878 906 821 1220 1134 1756 1694 1436 918 710 904 950 772 517 383 245 0 4 383 165 121 156 136 169 251 170 301 238 383 468 344 386 349 327 322 364 396 372 305 421 461 259 170 136 164 164 148 134 224 162 192 168 124 74 43 21 0 0
2938 2256 2053 2005 1894 1798 1700 1630 1300 1198 862 1088 776 471 302 208 188 284 274 102 225 201 390 521 791 1022 1136 1151 1495 1683 1744 1561 1204 1102 1231 898 945 592 576 962 1048 782 468 0 0 0 11 33 93 169 318 445 170 224 252 326 358 270 171 131 218 191 182 164 171 157 174 154 127 92 121 122 109 128 185 147 120 254 310 385 130 20 2 0 41
2868 2606 2050 1980 1778 1598 1482 1400 1326 1132 899 1017 796 473 406 364 300 286 247 63 249 370 520 562 929 1311 1266 1673 2045 2042 2041 1812 1440 1373 1184 870 701 610 555 468 282 136 182 38 409 501 320 126 186 344 517 378 240 148 185 235 141 31 28 28 12 8 9 38 52 74 46 43 151 156 188 222 294 22 48 18 22 18 90 136 36 1 0 0 0
2392 1953 1949 1854 1746 1609 1493 1408 1356 1408 1092 723 601 417 572 374 280 252 269 396 552 404 585 730 779 1264 1532 1909 2142 1810 1883 1592 1568 851 639 979 792 691 351 141 56 71 60 51 114 116 189 36 14 34 66 26 17 1 11 0 0 0 0 0 0 0 2 0 0 0 0 0 54 152 100 31 18 0 0 4 21 14 12 76 74 3 0 0 0
2060 1716 1840 1814 1702 1639 1652 1666 1524 1165 1075 795 715 589 465 333 282 296 340 276 709 532 667 931 1061 1361 1252 2104 1837 1652 1314 1076 1613 753 441 247 682 542 306 87 46 44 42 94 319 0 0 0 0 0 0 0 0 0 0 0 0 0 0 4 5 0 0 0 0 0 0 0 0 24 0 4 4 5 2 0 0 0 0 51 159 71 2 0 0
1633 1616 1616 1650 1588 1600 1585 1519 1376 1243 1151 902 660 483 367 322 327 430 653 790 913 625 654 846 1308 1229 1583 1307 1242 1157 863 1184 576 0 0 86 502 454 243 55 24 33 107 114 177 1098 10 0 0 0 0 0 0 0 0 0 0 0 2 22 7 0 0 0 0 3 1 0 0 3 22 9 2 1 0 0 0 0 40 131 124 86 2 0 0
1541 1541 1542 1561 1490 1325 1229 1073 976 866 751 614 605 554 420 357 341 482 813 749 676 591 851 1832 1576 1340 1156 867 771 540 542 1205 405 381 300 62 336 199 110 42 35 55 54 86 30 41 98 293 419 426 306 360 243 330 441 17 0 0 13 105 85 18 41 33 44 1 0 0 0 1 4 1 6 1 0 0 0 0 65 36 7 21 28 14 5
Wind_Speed
11 11 9 10 11 11 7 8 8 7 6 8 7 8 9 14 9 11 10 11 12 11 11 11 11 11 10 10 11 11 11 9 9 9 10 9 9 15 19 19 17 14 12 11 9 9 11 12 13 12 14 15 16 16 17 19 19 18 16 12 10 10 10 10 10 8 7 7 7 8 8 7 6 7 7 7 8 9 10 10 10 10 10 9 7
2 7 8 9 8 8 7 8 9 7 9 9 10 11 9 16 11 9 10 10 10 9 9 10 10 11 12 11 12 12 12 11 11 11 10 11 12 17 22 20 20 16 15 12 11 11 12 12 13 12 10 13 16 17 17 19 19 18 17 14 11 9 9 10 10 8 6 6 7 6 7 7 6 6 6 7 7 7 8 9 10 10 10 9 7
7 9 10 9 7 5 5 8 8 9 11 11 9 12 15 14 10 10 9 8 9 8 9 10 11 12 12 11 13 12 12 12 12 14 15 13 12 15 22 25 21 20 18 15 13 12 13 14 14 12 12 13 13 15 18 20 15 13 16 16 13 11 10 9 9 8 6 5 5 6 5 5 6 5 6 7 7 7 8 8 9 10 10 10 8
5 7 9 9 9 9 8 10 10 13 12 6 12 14 10 11 10 10 10 11 10 11 12 12 13 11 11 13 13 13 11 10 11 8 9 12 13 12 18 21 24 22 20 18 16 15 14 14 14 12 11 12 11 12 15 18 14 9 15 17 16 14 12 11 10 8 7 5 5 4 4 5 5 6 6 6 7 8 8 9 9 10 10 10 9
7 8 10 9 9 10 10 7 7 7 8 12 13 12 9 8 4 14 11 8 10 10 11 10 nan nan nan nan nan 10 10 11 12 11 8 8 10 11 10 14 20 23 22 19 19 16 16 14 13 13 11 10 10 11 12 15 12 9 15 20 22 23 20 15 10 8 7 6 5 5 5 5 6 7 7 7 8 8 8 9 9 10 10 9 9
8 8 9 9 9 10 9 10 7 12 12 7 9 9 11 12 14 9 8 9 9 8 nan nan nan nan nan 8 10 10 9 10 9 7 8 9 8 10 12 12 14 17 17 21 18 18 17 15 14 14 13 11 9 8 10 12 13 12 14 19 18 19 15 15 14 11 6 6 5 6 6 6 5 6 7 7 7 8 7 7 8 8 9 9 9
9 8 9 9 7 5 9 11 12 12 9 10 10 13 12 10 9 9 8 9 7 nan nan 7 7 8 9 8 8 8 9 9 9 10 11 11 11 10 12 11 11 10 17 16 19 18 17 17 15 14 14 13 11 8 9 11 12 14 14 16 14 14 16 15 14 11 8 7 7 5 5 6 6 5 5 5 5 5 5 6 6 6 7 8 8
9 9 9 9 9 12 12 11 12 10 12 12 13 9 10 9 10 10 9 nan nan 8 8 7 7 7 6 7 7 8 8 8 9 11 11 10 9 11 10 11 11 10 9 13 16 18 20 18 17 17 15 14 12 10 11 11 12 16 14 16 14 14 16 15 13 8 6 9 10 8 5 4 4 4 4 5 4 4 4 4 5 5 6 7 7
9 9 8 9 9 6 6 9 11 10 10 11 12 11 9 12 13 11 11 11 10 9 8 7 7 6 8 8 8 8 7 8 8 8 10 11 11 10 10 11 12 13 13 11 13 16 19 18 18 16 15 15 13 13 13 11 14 15 15 15 15 16 13 12 11 11 9 10 11 10 9 8 7 5 3 3 4 4 3 4 5 5 5 5 6
9 9 8 8 8 10 11 8 10 11 11 11 11 11 12 11 12 14 12 12 12 10 9 8 8 7 7 7 8 8 8 9 9 9 10 10 11 9 10 11 11 10 9 10 10 14 16 17 17 15 14 15 15 14 15 18 12 16 16 14 13 15 15 14 12 10 9 11 11 12 11 10 10 9 6 5 4 4 6 5 4 4 5 4 4
11 11 9 9 8 9 10 15 12 13 12 12 13 14 13 12 11 13 15 14 13 12 11 10 9 8 7 8 9 9 9 10 9 10 9 10 10 9 10 9 10 13 12 11 12 10 14 16 12 13 13 14 17 17 17 20 19 16 13 14 14 14 13 13 14 12 10 9 9 10 11 12 12 11 9 7 6 6 6 5 4 4 3 3 3
12 12 11 10 10 11 9 13 13 13 15 13 12 13 15 16 15 15 15 15 16 15 13 12 nan nan nan nan 12 11 12 10 10 11 12 12 14 10 10 11 11 12 13 13 12 11 11 14 16 16 14 11 16 19 19 17 16 15 14 14 13 12 12 12 12 11 11 11 9 9 11 13 12 11 10 8 7 7 8 7 6 4 3 3 2
13 13 13 13 12 15 15 15 17 16 16 15 15 15 16 17 17 18 16 16 15 16 16 nan nan 12 14 nan 14 14 15 13 12 12 nan nan 14 11 11 12 10 11 14 14 13 11 13 15 14 16 17 15 16 19 19 13 13 16 16 14 12 11 10 12 12 11 11 10 10 8 9 12 13 13 12 10 10 11 11 9 9 7 5 4 3
13 13 13 14 15 16 18 18 17 17 17 16 17 17 16 16 18 18 19 17 nan nan nan nan 14 nan nan nan nan 20 15 15 13 nan nan nan nan 14 12 nan 11 10 12 14 14 14 13 13 14 17 19 21 20 19 17 17 15 15 17 16 12 8 8 9 11 11 11 10 10 9 8 9 11 12 13 13 13 14 14 12 11 9 7 4 4
13 14 15 16 18 19 19 19 18 18 20 18 18 17 nan nan 19 18 17 20 nan nan 18 nan 11 nan nan 13 15 nan 19 14 13 15 nan nan nan nan nan nan nan 10 8 12 14 15 15 14 15 16 18 20 24 20 18 16 17 19 18 18 16 13 12 11 11 11 10 10 9 9 9 9 9 10 11 13 15 15 15 13 13 13 11 7 5
15 16 17 19 21 20 20 19 19 18 19 17 18 nan 18 19 18 20 19 nan nan nan 21 18 nan nan 16 nan nan nan 20 16 20 16 nan nan nan nan nan nan nan nan nan nan nan 15 17 16 17 17 18 19 20 27 21 21 23 22 20 20 19 18 17 15 15 13 12 10 9 10 10 10 10 10 10 12 14 15 16 16 16 15 13 10 8
19 19 19 20 20 20 19 18 18 19 18 17 18 nan 18 20 19 20 nan nan nan nan nan nan 20 16 15 16 16 18 15 nan nan 17 nan nan nan nan nan nan nan nan nan nan nan nan nan nan nan 18 18 19 20 21 23 24 21 21 22 21 20 20 20 18 16 18 18 18 18 18 17 15 13 12 11 12 13 15 17 17 17 16 15 15 14
18 19 19 20 20 19 17 17 18 18 17 15 nan 18 17 17 21 nan nan 19 nan nan nan 25 20 19 19 18 nan 18 16 17 15 21 15 nan nan nan nan nan nan nan nan nan nan nan nan nan nan nan nan nan nan nan nan 22 22 20 20 22 nan nan nan nan 19 18 19 19 20 21 22 23 23 21 18 15 15 15 14 16 17 19 19 19 18
18 18 18 20 19 18 17 16 16 17 17 18 18 nan nan 19 20 nan nan 22 nan 17 nan nan nan 21 21 20 nan 19 nan 18 20 nan 21 nan 15 nan nan nan nan nan nan nan nan nan nan nan nan nan nan nan nan nan nan nan nan nan nan nan nan nan nan nan nan nan nan nan 21 22 22 22 23 24 25 25 22 19 17 17 20 21 21 20 19
16 18 18 19 18 18 18 16 15 14 17 17 nan nan 20 20 nan nan nan nan 19 18 17 nan nan nan 24 19 22 23 20 nan 22 19 nan nan 18 nan nan nan nan nan nan nan nan nan nan nan nan nan nan nan nan nan nan nan 24 nan nan nan nan nan nan nan nan nan nan nan nan nan nan nan nan nan 25 25 25 26 25 22 19 19 19 20 20
14 16 17 18 19 18 18 16 15 15 17 nan nan 19 19 20 20 20 19 20 19 19 18 20 17 nan 23 22 20 21 nan nan nan 22 20 nan nan nan nan nan nan nan nan nan nan nan nan nan nan nan nan nan nan nan nan nan nan nan nan nan nan nan nan nan nan nan nan nan nan nan nan nan nan nan nan nan 26 26 26 27 27 25 20 20 20
15 15 19 19 19 19 18 17 16 16 nan nan 19 20 20 20 20 20 20 21 20 19 19 20 21 22 22 22 21 21 22 22 24 nan 26 nan nan nan nan nan nan nan nan nan nan nan nan nan nan nan nan nan nan nan nan nan nan nan nan nan nan nan nan nan nan nan nan nan nan nan nan nan nan nan nan nan nan nan nan 29 28 28 28 27 25
16 18 19 20 20 19 18 19 19 nan nan 20 23 23 24 23 23 22 21 20 21 21 20 21 22 22 22 24 22 nan nan nan nan nan nan nan nan nan nan nan nan nan nan nan nan nan nan nan nan nan nan nan nan nan nan nan nan nan nan nan nan nan nan nan nan nan nan nan nan nan nan nan nan nan nan nan nan nan nan nan nan 30 30 30 30
16 18 19 21 21 20 20 20 23 nan 25 23 24 nan nan 29 27 26 25 24 22 22 21 21 23 24 nan nan nan nan nan nan nan nan nan nan nan nan nan nan nan nan nan nan nan nan nan nan nan nan nan nan nan nan nan nan nan nan nan nan nan nan nan nan nan nan nan nan nan nan nan nan nan nan nan nan nan nan nan nan nan nan nan nan 33
18 18 21 22 24 24 24 24 26 26 27 28 24 28 24 nan 29 29 27 28 26 25 24 23 nan nan nan nan nan nan nan nan nan nan nan nan nan nan nan nan nan nan nan nan nan nan nan nan nan nan nan nan nan nan nan nan nan 37 nan nan nan nan nan nan nan nan nan nan nan nan nan nan nan nan nan nan nan nan nan nan nan nan nan nan nan
20 21 21 24 26 27 26 26 28 29 29 29 30 31 31 28 31 28 29 29 27 29 27 nan nan nan nan nan nan nan nan nan nan nan nan nan nan nan nan nan nan nan nan nan nan nan nan nan nan nan nan nan nan nan nan nan nan 40 nan nan nan nan nan nan nan nan nan nan nan nan nan nan nan nan nan nan nan nan nan nan nan nan nan nan nan
22 24 25 26 28 28 27 27 29 29 30 32 33 35 34 33 31 32 29 30 29 29 29 nan nan nan nan nan nan nan nan nan nan nan nan nan nan nan nan nan nan nan nan nan nan nan nan nan nan nan nan 34 nan nan nan nan nan 43 nan nan nan nan nan nan nan nan nan nan nan nan nan nan nan nan nan nan nan nan nan nan nan nan nan nan nan
25 27 29 29 30 28 29 29 31 32 33 34 36 37 38 36 35 33 31 30 29 30 30 nan nan nan nan nan 25 nan nan nan nan nan nan nan nan nan nan nan nan nan nan nan nan nan nan nan nan 34 nan nan nan nan nan nan nan nan 38 nan nan nan nan nan nan nan nan nan nan nan nan nan nan nan nan nan nan nan nan nan nan nan nan nan nan
26 27 30 30 30 29 29 30 32 34 36 37 37 38 39 39 37 34 31 30 30 29 28 28 27 nan 25 25 25 24 24 24 24 24 25 26 26 27 26 25 nan nan nan nan nan nan nan nan nan 35 nan nan nan nan nan nan nan nan nan nan nan nan nan nan nan nan nan nan nan nan nan nan nan nan nan nan nan nan nan nan nan nan nan nan nan
25 27 29 31 29 29 28 30 33 34 36 38 36 35 38 40 39 35 32 28 27 26 24 22 24 25 24 23 24 24 24 25 24 25 27 27 27 27 26 25 24 22 21 18 18 nan nan nan nan nan 38 nan nan nan 41 40 40 39 nan nan 38 38 38 nan nan nan nan nan nan nan nan nan nan nan nan nan nan nan nan nan nan nan nan nan nan
27 29 31 31 30 29 28 32 34 35 36 39 38 36 38 39 38 36 32 29 26 25 24 24 23 25 25 23 24 24 24 24 25 24 25 26 27 26 25 24 23 22 21 19 17 22 nan nan nan nan nan nan nan nan nan nan nan nan nan nan nan nan 39 39 39 nan nan nan nan nan nan nan nan nan nan nan nan nan nan nan nan nan nan nan nan
30 33 32 32 32 32 31 33 35 35 37 40 40 38 38 39 37 33 31 29 27 25 25 26 26 26 25 24 24 24 25 25 24 24 24 25 24 24 23 23 23 22 22 21 18 17 24 23 nan nan nan nan nan nan nan nan nan 46 43 43 42 40 40 41 40 42 45 nan nan nan nan nan nan nan nan nan nan nan nan nan nan nan nan nan nan
33 34 33 33 35 35 34 33 35 35 36 39 39 37 36 39 37 32 29 30 28 27 25 24 25 26 26 24 23 24 24 23 24 24 24 24 23 23 23 24 24 23 24 23 20 18 19 24 27 29 nan nan nan nan nan 39 40 nan nan 42 42 42 42 42 42 42 46 nan nan nan nan nan nan nan nan nan nan nan nan nan nan nan nan nan nan
36 37 36 35 36 37 34 34 35 37 38 39 37 33 33 37 37 32 29 30 31 29 28 26 24 25 26 25 23 24 24 23 23 24 25 26 26 23 24 25 25 25 26 24 23 21 19 22 26 30 32 33 33 36 nan nan 40 41 40 42 43 42 43 44 43 45 48 nan nan nan nan nan nan nan nan nan nan nan nan nan nan nan nan nan nan
37 38 38 36 36 37 36 37 39 39 39 39 35 30 29 34 36 35 33 34 34 32 30 26 24 26 27 26 24 24 26 25 25 27 28 28 26 24 24 26 26 25 24 25 23 20 19 23 27 28 30 32 34 36 37 40 43 44 43 43 43 44 44 44 44 46 nan nan nan nan nan nan nan nan nan nan nan nan nan nan nan nan nan nan nan
39 38 37 36 36 38 40 42 42 40 39 38 34 29 29 34 37 38 38 37 36 35 31 26 25 26 27 26 25 25 26 26 28 29 30 27 25 25 26 27 27 25 24 23 24 24 24 24 29 31 33 33 35 37 40 42 42 44 45 45 44 45 45 44 45 46 47 nan nan nan nan nan nan nan nan nan nan nan nan nan nan nan nan nan nan
39 39 36 35 36 39 40 41 41 39 35 32 29 25 27 34 37 39 40 40 38 36 32 28 26 27 27 26 25 27 26 26 27 27 27 25 25 26 27 28 28 26 25 25 25 27 31 31 33 36 37 37 38 39 41 42 43 45 46 46 47 47 45 44 nan 47 nan nan nan nan nan nan nan nan nan nan nan nan nan nan nan nan nan nan nan
41 41 40 37 36 38 38 39 39 38 34 29 26 26 31 34 37 38 40 40 38 36 34 30 28 28 28 27 28 28 27 27 27 27 27 26 26 27 27 29 29 27 26 27 28 30 34 36 37 37 41 41 41 42 43 44 44 47 48 47 46 46 46 45 nan nan 48 47 46 47 47 45 41 nan nan nan nan nan nan nan nan nan nan nan nan
43 43 42 41 38 38 38 38 40 39 36 32 31 34 37 37 37 37 38 39 37 36 35 31 29 28 28 28 28 29 29 27 26 26 26 27 28 28 30 31 31 30 29 31 33 35 36 38 39 39 41 43 44 42 43 44 50 49 45 45 44 45 46 46 46 46 46 44 42 40 nan nan nan 31 nan nan nan nan nan nan nan nan nan nan nan
44 45 45 44 41 40 38 38 39 37 34 32 32 35 36 37 37 36 36 36 35 34 33 30 28 27 27 28 29 31 30 27 26 27 27 27 29 29 31 32 33 33 33 34 35 36 37 38 40 42 45 46 45 43 43 44 46 47 48 45 43 44 45 45 44 43 42 41 39 37 37 37 36 32 nan nan nan nan nan nan nan nan nan nan nan
41 44 44 44 43 42 40 38 38 37 35 33 32 31 33 35 35 34 35 35 33 32 32 29 29 28 27 27 29 31 31 30 30 30 28 29 30 31 33 33 32 33 36 37 37 36 37 39 41 45 46 48 48 46 45 45 46 44 47 45 44 43 42 41 42 41 40 38 37 35 34 32 29 29 29 29 30 28 27 26 nan 20 nan nan nan
41 42 43 44 43 43 42 40 38 38 37 34 33 36 35 35 35 33 35 35 31 31 31 29 28 28 29 30 30 30 31 35 36 34 32 32 34 35 35 35 34 36 38 37 36 36 36 38 41 46 47 nan nan 44 43 43 44 43 43 45 43 42 41 39 39 39 39 38 36 34 31 30 28 28 28 27 28 27 27 26 27 25 25 nan nan
42 42 42 43 41 41 42 41 40 39 38 35 40 40 39 37 36 34 35 36 32 30 30 29 29 29 30 31 31 31 34 36 36 36 34 35 34 35 35 35 38 40 37 35 34 35 nan nan nan 46 46 43 nan 41 42 nan nan 42 43 43 43 41 39 38 36 36 39 38 37 31 28 29 29 27 27 25 23 24 24 24 23 23 nan nan nan
44 44 45 44 41 40 40 41 40 38 37 37 43 43 40 38 36 35 36 35 32 29 28 29 31 31 30 29 30 32 31 35 36 38 35 34 33 32 32 35 36 nan nan 36 34 35 38 42 45 45 43 41 40 40 41 nan 41 42 42 42 42 40 38 37 34 32 37 38 35 30 25 28 29 27 24 24 24 24 24 23 nan nan nan nan nan
46 48 48 46 43 41 40 39 38 38 34 39 42 42 nan 38 38 37 36 33 32 30 27 29 31 31 31 29 28 31 34 39 39 38 39 33 27 26 29 33 36 38 39 nan nan 40 43 46 45 41 40 39 38 39 40 41 41 39 41 41 40 39 37 34 32 31 34 37 33 29 23 25 29 27 24 25 24 24 22 21 nan nan nan nan nan
47 49 48 46 44 41 39 37 36 37 34 43 42 42 39 40 41 39 35 31 29 28 27 29 30 31 31 28 29 33 36 44 40 39 41 40 42 39 36 39 41 42 44 nan nan nan nan nan nan 39 38 38 38 38 38 39 40 40 40 38 37 36 35 32 29 28 30 33 31 nan 25 26 28 27 23 22 23 24 25 21 19 nan nan nan nan
50 48 45 43 41 40 40 39 36 37 36 44 42 41 40 41 42 41 35 nan 28 28 29 28 29 30 29 27 31 34 38 40 42 43 41 40 40 41 41 40 39 37 38 nan 47 51 51 48 41 37 37 38 37 37 39 39 39 nan nan nan nan nan nan nan nan nan nan nan 30 31 25 27 28 nan nan nan nan nan nan 24 nan nan nan nan nan
51 46 42 39 38 37 37 36 35 36 36 43 40 40 42 41 41 37 32 29 27 29 31 30 28 31 27 30 39 42 39 37 44 44 42 40 39 40 41 41 nan nan nan nan 50 47 43 nan nan nan nan nan nan nan nan nan nan nan nan nan nan nan nan nan nan nan nan nan nan 29 26 nan nan nan nan nan nan nan nan nan nan nan nan nan nan
51 46 40 38 36 36 36 36 33 33 33 37 39 40 40 37 34 30 28 27 28 30 32 31 30 33 31 35 41 42 39 36 44 46 47 42 40 42 42 nan nan nan nan nan 55 nan nan nan nan nan nan nan nan nan nan nan nan nan nan nan nan nan nan nan nan nan nan nan nan nan nan nan nan nan nan nan nan nan nan nan 29 nan nan nan nan
49 43 40 37 35 34 37 36 33 33 31 38 41 39 36 33 30 25 25 26 28 30 31 31 36 35 36 42 46 43 39 38 46 nan nan nan 44 44 42 nan nan nan 40 40 40 46 nan nan nan nan nan nan nan nan nan nan nan nan nan nan nan nan nan nan nan nan nan nan nan nan nan nan nan nan nan nan nan nan nan 29 32 nan nan nan nan
46 40 38 36 34 34 36 35 36 34 31 35 39 33 30 29 28 24 25 27 29 31 34 36 35 34 38 42 41 40 38 45 48 49 48 nan 46 44 41 nan nan nan nan nan nan nan nan 43 42 41 40 41 42 43 44 nan nan nan nan 37 nan nan nan nan nan nan nan nan nan nan nan nan nan nan nan nan nan nan nan nan nan nan nan nan nan
Wind_Direction
52 52 52 48 49 47 45 61 63 70 55 49 36 50 74 79 71 62 60 61 64 65 62 62 53 48 48 44 48 49 45 43 41 33 35 30 22 347 345 343 349 352 8 12 6 354 345 335 332 330 331 322 320 319 321 317 304 287 279 277 277 285 290 294 296 302 310 319 325 329 335 343 352 358 356 1 2 5 8 9 9 11 14 15 21
63 118 54 45 52 50 45 48 49 49 58 51 39 40 45 73 58 61 51 53 56 54 52 47 45 37 31 32 37 38 31 26 26 23 16 22 18 356 354 358 355 2 10 19 11 3 357 336 337 328 325 328 320 318 319 318 306 281 267 266 263 266 270 277 283 290 300 311 318 326 333 339 348 358 360 359 5 10 16 17 17 17 17 20 25
6 25 50 41 37 54 36 58 60 49 41 48 57 47 41 52 39 53 53 42 39 34 36 37 39 40 24 22 32 30 27 23 21 17 13 4 7 354 358 358 360 3 14 21 19 10 3 345 344 339 326 328 324 326 329 327 311 273 255 256 255 253 255 259 265 272 284 291 299 312 325 334 343 353 0 5 6 10 16 23 27 25 24 24 28
52 34 50 34 26 26 22 40 41 42 35 31 57 57 55 54 60 48 41 32 24 28 29 32 29 24 16 27 24 24 21 15 22 14 8 7 2 8 356 356 355 359 6 15 21 17 15 1 348 345 340 340 341 339 334 332 324 270 244 251 250 246 247 243 249 255 263 273 277 292 313 330 341 348 359 8 12 13 13 17 23 29 31 28 30
24 34 41 41 30 24 33 37 39 63 27 14 35 53 40 35 19 50 34 28 35 34 28 26 nan nan nan nan nan 14 11 13 16 12 1 355 4 355 360 351 354 355 358 5 10 14 20 17 0 351 346 347 350 351 340 329 327 282 244 233 231 228 225 223 236 251 261 263 283 298 313 331 342 349 357 6 12 15 18 16 17 22 31 34 33
21 26 34 34 30 24 30 19 10 30 35 353 34 18 37 18 21 22 26 30 34 21 nan nan nan nan nan 6 7 3 0 8 9 353 360 4 347 352 357 360 351 352 351 356 1 2 11 20 14 4 0 0 358 350 338 330 324 296 268 262 251 257 261 256 250 246 255 283 294 305 314 327 343 353 355 1 6 11 17 21 21 21 24 32 36
18 19 27 30 22 23 8 12 9 26 16 355 15 16 18 23 358 13 8 15 2 nan nan 359 0 3 359 359 0 355 358 358 348 358 359 355 353 350 348 350 348 356 342 345 353 358 1 9 11 10 4 4 4 350 335 326 313 297 281 275 291 286 264 245 239 240 248 274 277 286 303 322 332 346 357 356 0 8 12 16 23 25 28 32 36
15 16 20 25 16 12 15 1 6 13 7 6 15 11 2 349 357 0 355 nan nan 353 344 345 348 349 338 346 348 350 354 351 351 355 341 341 345 345 345 336 340 343 343 347 339 345 355 360 3 3 2 1 1 358 340 319 297 289 317 340 334 302 284 269 263 252 250 268 273 273 276 288 310 326 340 342 344 352 9 18 20 20 30 36 39
8 12 17 22 19 10 27 14 358 6 358 359 354 359 344 355 346 343 343 338 342 344 328 329 334 329 339 340 332 335 344 335 345 334 329 342 343 338 331 326 329 334 340 345 342 333 345 354 353 359 357 351 350 355 343 287 299 323 355 347 345 342 331 311 294 265 250 269 273 281 281 277 270 275 297 324 336 337 344 13 10 13 18 27 37
1 357 11 16 16 352 352 347 4 346 351 353 332 343 343 336 333 332 329 328 336 331 324 325 314 322 311 317 313 320 324 329 329 334 336 333 324 329 321 320 314 310 312 317 316 323 333 342 342 341 347 342 340 341 334 316 330 4 4 347 352 355 353 349 335 307 276 253 265 272 270 268 268 265 266 277 290 302 321 338 357 6 6 12 33
347 351 357 7 353 343 341 353 344 336 329 327 343 332 322 317 323 319 324 333 331 327 327 324 332 317 319 309 306 314 317 317 323 326 328 323 311 316 309 303 303 301 303 308 311 319 311 319 324 328 324 335 332 332 331 330 354 4 8 2 5 3 356 352 355 347 333 314 286 275 268 262 260 260 260 262 271 279 276 275 295 326 357 2 9
344 347 350 351 351 313 352 317 311 322 327 332 320 320 318 323 325 321 323 328 334 323 327 320 nan nan nan nan 321 314 310 310 320 328 325 334 306 305 311 304 298 295 296 297 299 300 306 305 320 311 309 324 334 325 326 341 351 359 11 16 11 4 358 355 4 357 345 336 320 291 268 258 257 259 259 261 263 258 262 264 253 255 294 308 313
339 341 345 344 335 331 329 321 328 324 313 315 310 307 310 317 317 317 319 322 320 324 316 nan nan 331 318 nan 319 312 315 309 314 325 nan nan 302 307 300 298 288 294 294 291 290 293 298 301 296 295 301 304 312 303 304 317 340 349 354 11 15 12 359 350 349 349 351 350 342 320 284 266 260 259 257 256 256 256 255 257 256 252 245 248 270
332 335 334 331 328 320 323 322 315 314 310 304 303 307 312 313 311 308 319 313 nan nan nan nan 335 nan nan nan nan 310 307 313 331 nan nan nan nan 306 297 nan 282 280 286 296 298 294 289 283 283 290 294 304 306 306 305 314 323 331 339 348 354 360 355 346 342 340 342 345 342 329 310 285 270 263 256 249 247 254 259 258 259 256 248 229 235
324 323 320 319 317 320 317 314 313 308 307 313 308 303 nan nan 303 310 304 313 nan nan 310 nan 305 nan nan 311 311 nan 304 308 307 309 nan nan nan nan nan nan nan 268 279 285 286 289 283 278 275 277 280 285 297 300 305 304 303 309 309 313 312 314 313 316 322 326 330 331 332 328 323 311 295 273 259 248 245 250 257 257 254 253 254 246 233
316 313 311 313 317 317 314 310 308 303 305 304 301 nan 303 300 306 304 304 nan nan nan 305 304 nan nan 304 nan nan nan 308 307 316 307 nan nan nan nan nan nan nan nan nan nan nan 284 284 280 279 279 279 279 281 295 301 298 300 297 294 291 288 281 279 284 292 299 305 306 306 306 304 302 297 292 275 256 248 245 248 253 258 257 258 261 255
313 317 317 318 316 316 314 310 307 308 306 306 301 nan 302 305 305 299 nan nan nan nan nan nan 300 294 293 297 303 304 286 nan nan 292 nan nan nan nan nan nan nan nan nan nan nan nan nan nan nan 279 276 277 281 284 288 295 296 294 292 284 279 278 275 269 267 272 275 278 279 278 278 284 292 294 287 272 258 250 248 253 261 265 266 266 263
319 321 321 317 319 320 318 312 312 309 309 305 nan 299 302 306 302 nan nan 305 nan nan nan 297 296 296 295 296 nan 290 289 284 294 295 306 nan nan nan nan nan nan nan nan nan nan nan nan nan nan nan nan nan nan nan nan 280 283 282 282 283 nan nan nan nan 270 269 267 264 264 267 269 269 269 267 267 267 262 260 257 254 254 253 248 247 252
324 322 321 321 321 320 315 316 314 314 314 306 310 nan nan 306 302 nan nan 296 nan 297 nan nan nan 300 296 289 nan 280 nan 285 285 nan 296 nan 297 nan nan nan nan nan nan nan nan nan nan nan nan nan nan nan nan nan nan nan nan nan nan nan nan nan nan nan nan nan nan nan 264 266 266 266 266 264 263 262 262 261 261 258 253 249 244 241 242
322 321 321 323 319 316 316 319 318 316 306 309 nan nan 295 299 nan nan nan nan 301 298 287 nan nan nan 285 286 291 288 289 nan 288 285 nan nan 302 nan nan nan nan nan nan nan nan nan nan nan nan nan nan nan nan nan nan nan 294 nan nan nan nan nan nan nan nan nan nan nan nan nan nan nan nan nan 264 263 262 259 256 256 257 255 250 245 241
322 322 322 320 317 319 315 317 318 312 309 nan nan 308 303 307 306 307 306 305 302 294 296 289 287 nan 281 283 282 286 nan nan nan 294 289 nan nan nan nan nan nan nan nan nan nan nan nan nan nan nan nan nan nan nan nan nan nan nan nan nan nan nan nan nan nan nan nan nan nan nan nan nan nan nan nan nan 263 261 260 257 254 254 252 245 238
320 323 319 323 321 314 319 320 313 312 nan nan 313 304 310 310 311 310 306 306 302 299 296 290 287 281 282 283 284 282 285 291 293 nan 296 nan nan nan nan nan nan nan nan nan nan nan nan nan nan nan nan nan nan nan nan nan nan nan nan nan nan nan nan nan nan nan nan nan nan nan nan nan nan nan nan nan nan nan nan 258 256 254 250 246 242
324 323 326 324 321 323 325 316 316 nan nan 314 315 315 317 314 309 307 306 301 298 298 293 291 289 287 287 289 284 nan nan nan nan nan nan nan nan nan nan nan nan nan nan nan nan nan nan nan nan nan nan nan nan nan nan nan nan nan nan nan nan nan nan nan nan nan nan nan nan nan nan nan nan nan nan nan nan nan nan nan nan 256 252 249 246
325 322 325 327 321 330 325 320 311 nan 316 317 317 nan nan 308 303 304 306 304 298 294 293 292 292 293 nan nan nan nan nan nan nan nan nan nan nan nan nan nan nan nan nan nan nan nan nan nan nan nan nan nan nan nan nan nan nan nan nan nan nan nan nan nan nan nan nan nan nan nan nan nan nan nan nan nan nan nan nan nan nan nan nan nan 247
326 329 326 331 327 325 325 322 318 321 320 318 317 310 306 nan 306 307 305 305 302 298 296 297 nan nan nan nan nan nan nan nan nan nan nan nan nan nan nan nan nan nan nan nan nan nan nan nan nan nan nan nan nan nan nan nan nan 315 nan nan nan nan nan nan nan nan nan nan nan nan nan nan nan nan nan nan nan nan nan nan nan nan nan nan nan
330 331 328 331 325 324 326 324 323 324 323 322 321 318 316 313 309 309 306 303 299 296 294 nan nan nan nan nan nan nan nan nan nan nan nan nan nan nan nan nan nan nan nan nan nan nan nan nan nan nan nan nan nan nan nan nan nan 314 nan nan nan nan nan nan nan nan nan nan nan nan nan nan nan nan nan nan nan nan nan nan nan nan nan nan nan
330 328 330 327 327 326 328 325 325 326 326 326 324 322 320 317 311 309 307 304 304 299 293 nan nan nan nan nan nan nan nan nan nan nan nan nan nan nan nan nan nan nan nan nan nan nan nan nan nan nan nan 322 nan nan nan nan nan 313 nan nan nan nan nan nan nan nan nan nan nan nan nan nan nan nan nan nan nan nan nan nan nan nan nan nan nan
328 329 329 327 325 326 325 327 326 329 328 326 324 323 322 319 316 312 312 312 311 308 298 nan nan nan nan nan 285 nan nan nan nan nan nan nan nan nan nan nan nan nan nan nan nan nan nan nan nan 316 nan nan nan nan nan nan nan nan 314 nan nan nan nan nan nan nan nan nan nan nan nan nan nan nan nan nan nan nan nan nan nan nan nan nan nan
327 328 327 326 323 323 322 325 327 329 329 326 325 324 322 319 317 315 314 317 317 313 306 295 284 nan 285 287 287 289 289 287 288 288 290 290 290 289 289 289 nan nan nan nan nan nan nan nan nan 307 nan nan nan nan nan nan nan nan nan nan nan nan nan nan nan nan nan nan nan nan nan nan nan nan nan nan nan nan nan nan nan nan nan nan nan
330 328 328 327 325 324 323 325 327 328 327 324 323 323 319 315 315 312 309 313 314 311 306 298 292 290 292 285 283 288 290 289 289 289 289 290 290 291 291 291 291 295 295 298 300 nan nan nan nan nan 304 nan nan nan 311 309 309 308 nan nan 304 304 305 nan nan nan nan nan nan nan nan nan nan nan nan nan nan nan nan nan nan nan nan nan nan
329 331 331 329 327 327 329 331 329 328 326 324 325 323 319 315 314 309 306 308 311 309 304 301 298 299 297 291 283 285 288 286 281 282 283 286 289 290 291 291 294 297 300 302 304 303 nan nan nan nan nan nan nan nan nan nan nan nan nan nan nan nan 303 303 305 nan nan nan nan nan nan nan nan nan nan nan nan nan nan nan nan nan nan nan nan
331 334 333 330 327 329 333 333 330 329 327 324 323 324 322 321 320 311 306 311 311 306 304 304 303 303 301 296 290 289 291 290 287 284 283 287 288 289 290 290 293 298 301 304 306 299 302 306 nan nan nan nan nan nan nan nan nan 306 304 303 303 304 303 303 306 309 311 nan nan nan nan nan nan nan nan nan nan nan nan nan nan nan nan nan nan
332 335 333 330 327 329 333 330 327 326 327 324 321 322 325 325 324 315 304 305 307 302 300 300 304 307 305 300 294 293 293 292 291 289 288 289 290 289 291 294 297 300 304 305 303 298 302 306 305 302 nan nan nan nan nan 305 305 nan nan 304 304 303 303 301 299 301 303 nan nan nan nan nan nan nan nan nan nan nan nan nan nan nan nan nan nan
335 336 335 331 326 327 330 328 325 326 328 326 320 318 325 327 325 316 303 297 299 299 300 306 310 310 307 302 299 299 298 295 292 295 296 295 293 290 293 297 299 303 307 308 307 306 310 304 301 299 299 299 301 303 nan nan 304 302 301 300 301 302 300 298 297 298 302 nan nan nan nan nan nan nan nan nan nan nan nan nan nan nan nan nan nan
338 336 334 332 325 325 328 327 326 325 325 323 314 307 320 326 321 314 305 298 298 301 304 308 313 315 313 307 306 305 300 298 296 297 299 299 297 296 298 299 301 305 308 309 306 308 309 306 304 305 306 305 305 304 304 303 303 303 302 301 302 301 299 298 298 297 nan nan nan nan nan nan nan nan nan nan nan nan nan nan nan nan nan nan nan
340 338 335 331 327 326 328 326 326 325 325 325 318 304 308 319 316 309 304 299 301 305 305 304 308 314 314 310 311 311 307 304 302 301 302 302 299 298 299 300 301 303 303 301 301 301 307 313 314 316 315 313 310 306 304 302 301 300 299 298 300 301 300 299 300 300 301 nan nan nan nan nan nan nan nan nan nan nan nan nan nan nan nan nan nan
342 340 335 330 326 326 326 323 323 326 326 330 335 325 311 308 306 302 300 298 301 306 307 305 303 308 313 314 313 313 310 307 304 301 299 300 297 297 296 297 300 298 293 290 294 303 310 316 318 317 317 317 313 309 304 302 300 299 298 299 300 299 299 299 nan 301 nan nan nan nan nan nan nan nan nan nan nan nan nan nan nan nan nan nan nan
342 342 338 333 328 326 325 324 323 324 321 319 326 330 325 314 302 299 299 299 302 305 308 310 308 309 314 313 312 312 309 305 301 299 298 299 298 296 295 294 296 298 296 293 295 302 308 312 315 316 317 315 312 309 304 302 302 300 299 300 300 298 297 299 nan nan 299 299 299 303 307 309 312 nan nan nan nan nan nan nan nan nan nan nan nan
339 339 339 336 329 325 326 325 324 325 322 313 303 305 313 315 305 300 300 301 303 303 306 311 311 312 314 311 308 309 306 303 303 301 300 301 299 300 299 297 295 297 298 296 295 298 301 303 305 308 309 310 309 307 303 300 300 302 301 300 299 299 300 300 299 300 301 302 305 308 nan nan nan 297 nan nan nan nan nan nan nan nan nan nan nan
337 338 337 336 329 325 325 324 323 323 326 321 309 301 305 308 305 303 298 298 303 303 304 310 311 309 309 308 307 306 306 304 304 303 302 303 303 305 304 302 298 298 299 296 295 295 296 299 303 305 308 308 308 305 302 301 301 303 303 299 299 299 299 300 301 302 302 303 304 304 305 308 309 310 nan nan nan nan nan nan nan nan nan nan nan
332 334 334 333 328 324 321 320 319 316 316 319 316 308 306 306 305 306 300 295 299 303 304 308 308 306 304 302 302 304 306 310 312 308 306 302 304 306 304 300 299 299 300 298 295 294 297 302 306 308 309 309 307 304 302 300 302 302 297 297 298 299 299 301 303 304 303 303 303 304 303 299 294 290 285 282 283 286 289 296 nan 290 nan nan nan
328 328 329 329 326 320 317 316 315 310 310 312 314 314 308 305 307 302 295 294 300 301 300 300 300 302 302 301 302 305 302 302 303 309 314 315 314 311 306 302 299 300 301 298 294 293 296 302 307 307 307 nan nan 300 298 298 297 297 298 297 297 298 299 302 304 306 304 303 301 300 297 293 290 286 285 283 281 280 273 270 267 265 270 nan nan
325 323 324 323 322 315 314 313 313 309 308 310 312 312 309 308 305 302 295 294 297 296 297 297 297 299 300 301 301 303 308 310 307 301 301 303 306 310 311 308 306 305 304 301 297 295 nan nan nan 305 303 301 nan 298 297 nan nan 296 296 297 298 298 300 301 303 303 304 299 297 296 294 291 286 283 281 279 274 272 269 268 265 266 nan nan nan
323 322 320 319 317 312 309 311 312 308 308 307 308 308 307 307 302 298 295 292 293 290 295 297 296 299 299 298 300 302 308 307 306 303 303 302 306 311 316 316 316 nan nan 309 301 298 301 304 305 304 301 299 297 297 296 nan 294 294 296 296 297 298 300 303 304 305 298 296 296 294 291 286 283 281 279 280 278 275 274 274 nan nan nan nan nan
324 320 318 316 314 309 308 312 311 308 307 300 303 304 nan 309 304 297 294 293 293 297 297 295 298 298 296 295 300 303 300 292 295 298 295 293 297 302 317 323 321 320 317 nan nan 306 305 308 307 304 301 298 297 296 294 293 293 297 297 297 297 299 301 302 304 302 298 292 291 293 291 284 280 281 283 282 278 276 276 280 nan nan nan nan nan
324 322 319 315 309 306 307 309 308 305 305 301 305 308 310 306 300 298 294 297 298 298 297 296 297 298 291 292 300 302 299 296 299 300 299 300 303 312 318 317 314 316 319 nan nan nan nan nan nan 303 300 298 298 295 294 293 295 298 297 298 297 299 300 303 300 299 298 296 297 nan 294 289 287 288 288 283 281 281 280 280 282 nan nan nan nan
320 319 319 312 305 305 307 308 308 306 301 304 308 310 309 305 302 299 298 nan 298 297 295 295 295 285 283 293 299 295 293 292 296 300 299 301 307 307 305 304 304 301 300 nan 309 309 309 309 308 305 302 301 299 296 294 296 298 nan nan nan nan nan nan nan nan nan nan nan 303 302 300 293 289 nan nan nan nan nan nan 263 nan nan nan nan nan
317 316 312 304 302 304 306 309 308 304 295 307 311 313 309 307 307 297 301 303 300 297 295 295 293 288 292 292 288 291 291 292 294 294 290 291 294 297 299 300 nan nan nan nan 302 301 303 nan nan nan nan nan nan nan nan nan nan nan nan nan nan nan nan nan nan nan nan nan nan 291 290 nan nan nan nan nan nan nan nan nan nan nan nan nan nan
316 314 308 302 300 304 302 302 306 300 299 309 312 311 307 310 301 295 298 297 296 296 294 291 287 281 284 289 289 290 291 289 288 290 289 290 297 298 298 nan nan nan nan nan 308 nan nan nan nan nan nan nan nan nan nan nan nan nan nan nan nan nan nan nan nan nan nan nan nan nan nan nan nan nan nan nan nan nan nan nan 283 nan nan nan nan
316 314 308 302 303 307 309 312 314 307 307 309 316 313 314 312 304 301 296 294 293 292 291 288 280 276 284 286 288 289 288 288 289 nan nan nan 300 301 299 nan nan nan 305 302 299 301 nan nan nan nan nan nan nan nan nan nan nan nan nan nan nan nan nan nan nan nan nan nan nan nan nan nan nan nan nan nan nan nan nan 292 291 nan nan nan nan
308 307 306 306 307 308 310 313 312 314 311 307 316 318 314 308 307 303 299 294 291 290 286 279 280 290 290 290 293 291 288 286 291 292 295 nan 301 302 301 nan nan nan nan nan nan nan nan 307 307 307 310 315 316 313 314 nan nan nan nan 315 nan nan nan nan nan nan nan nan nan nan nan nan nan nan nan nan nan nan nan nan nan nan nan nan nan